Regional Weather Roundup
Issued by NWS

Home | Current Version | Previous Version | Text Only | Print | Product List | Glossary On
Versions: 1 2 3 4 5 6 7 8 9 10 11 12 13 14 15 16 17 18 19 20 21 22 23 24 25 26 27 28 29 30 31 32 33 34 35 36 37 38 39 40 41 42 43 44 45 46 47 48 49 50
000
ASUS43 KLMK 281910
RWRKY
KENTUCKY REGIONAL WEATHER ROUNDUP
NATIONAL WEATHER SERVICE LOUISVILLE KY
300 PM EDT TUE JUL 28 2015

NOTE "FAIR" INDICATES FEW OR NO CLOUDS BELOW 12,000 FEET
WITH NO SIGNIFICANT WEATHER AND/OR OBSTRUCTIONS TO VISIBILITY.

KYZ001>023-026-027-061>063-070>075-282000-
WESTERN AND SOUTH CENTRAL KENTUCKY

CITY           SKY/WX    TMP DP  RH WIND       PRES   REMARKS
PADUCAH        MOSUNNY   93  78  61 SW9       29.96F HX 108
HENDERSON      MOSUNNY   93  79  62 W5        29.94F HX 110
OWENSBORO      MOSUNNY   92  79  65 N7        29.96F HX 108
HOPKINSVILLE   MOSUNNY   92  77  61 W13       29.98F HX 105
BOWLING GREEN  SUNNY     87  73  62 VRB7      29.99F HX  94
GLASGOW        PTSUNNY  N/A N/A N/A SW10      29.99F
$$

KYZ024-025-028>034-038-045-046-053-282000-
NORTH CENTRAL KENTUCKY

CITY           SKY/WX    TMP DP  RH WIND       PRES   REMARKS
LOUISVILLE/SDF PTSUNNY   93  73  52 W6        29.94F HX 102
LOUISVILLE/LOU PTSUNNY   92  73  53 NW6       29.95F HX 100
FORT KNOX      MOSUNNY   89  76  65 W6        29.95F HX 100
$$

KYZ035>037-039>044-047>052-055>060-089>105-282000-
NORTHEAST KENTUCKY

CITY           SKY/WX    TMP DP  RH WIND       PRES   REMARKS
LEXINGTON      PTSUNNY   84  73  69 NE14      29.99F HX  90
COVINGTON      MOSUNNY   91  72  53 N7        29.98F HX  98
FRANKFORT      MOSUNNY   88  74  63 W7        29.96F HX  96
$$

KYZ054-064>069-076>088-106>120-282000-
SOUTHEAST KENTUCKY

CITY           SKY/WX    TMP DP  RH WIND       PRES   REMARKS
JACKSON        CLOUDY    85  71  63 W3        30.02F HX  90
LONDON         MOSUNNY   87  68  52 W5        30.01F HX  90
SOMERSET       PTSUNNY   88  72  58 NW8       30.00F HX  94
MIDDLESBORO    LGT RAIN  82  76  80 S3        30.01F
MONTICELLO     PTCLDY    92  77  61 W3        30.02F HX 105
$$



USA.gov is the U.S. government's official web portal to all federal, state and local government web resources and services.